Temperature
10 10 10 11 12 13 13 13 13 14 16 14 13 13 14 15 16 16 16 17 17 17 18 18 18 18 19 19 20 20 19 19 18 17 16 16 15 15 14 14 14 13 13 13
9 10 12 13 14 13 12 12 12 13 14 13 12 13 13 14 15 15 16 16 17 17 17 17 18 18 18 18 19 19 19 19 18 17 17 17 15 15 14 14 14 13 13 13
10 11 12 12 12 11 11 11 11 11 12 12 11 12 14 16 16 16 16 16 16 17 17 17 17 17 17 18 18 18 18 18 18 17 16 15 15 14 14 14 14 13 13 13
10 11 11 11 11 11 10 12 11 11 10 10 11 9 13 15 16 16 16 17 17 17 17 17 17 17 17 17 17 17 18 18 18 17 16 16 16 15 15 14 14 13 13 13
10 11 10 10 11 11 11 11 10 10 9 8 9 8 11 14 15 15 15 17 17 17 17 17 17 17 17 17 17 17 17 17 17 17 16 16 16 15 15 14 13 12 12 12
11 11 11 10 11 11 11 10 9 9 8 7 9 9 10 14 16 17 17 17 17 17 17 17 17 16 16 16 16 17 17 17 16 16 15 15 15 15 15 14 12 12 12 11
9 10 10 11 10 10 10 8 8 8 7 7 11 11 12 15 16 17 16 17 17 17 16 16 16 16 15 15 16 16 16 16 16 15 14 14 13 14 15 14 13 12 11 11
8 9 10 10 9 9 9 9 7 8 9 10 13 12 13 16 17 17 17 16 16 16 16 15 15 15 15 15 15 15 15 15 15 14 13 12 12 13 13 13 12 12 11 11
9 9 11 10 10 10 8 8 9 8 7 7 9 12 14 15 15 15 15 16 16 15 15 15 14 14 14 14 14 14 14 14 13 13 12 11 11 12 12 12 11 11 11 11
10 9 10 10 10 9 10 9 8 6 5 7 9 11 13 14 14 15 14 14 15 15 14 14 13 13 13 13 14 14 14 13 12 12 11 10 10 11 11 11 11 11 11 10
10 8 9 9 8 8 8 8 8 7 7 6 7 10 15 14 14 13 14 14 14 14 13 13 12 12 12 13 13 13 13 12 11 11 10 10 10 10 10 10 10 10 10 9
10 8 7 8 10 10 9 8 7 6 6 7 7 9 14 13 13 13 13 13 13 12 12 12 11 11 11 12 12 12 12 11 11 10 9 9 9 10 10 9 9 9 9 8
9 8 6 8 9 9 9 9 9 8 7 6 7 8 13 13 13 12 12 11 11 11 11 11 10 10 10 11 11 11 10 10 9 9 9 8 9 9 9 9 8 7 7 7
10 8 6 8 9 9 8 8 9 7 6 6 7 9 10 11 11 11 10 9 9 9 9 9 9 9 9 10 9 9 9 9 8 8 8 8 8 8 8 7 7 6 7 7
9 7 7 8 9 9 8 8 9 7 7 6 7 8 9 10 10 9 9 8 8 8 8 9 9 8 8 8 8 8 8 7 7 7 6 6 6 6 6 6 6 6 6 6
8 7 7 7 9 9 9 9 9 9 9 8 8 8 10 10 9 9 8 8 7 7 7 8 8 8 7 7 7 6 6 6 6 5 5 5 5 5 5 5 5 5 5 5
8 7 7 7 10 9 9 10 10 9 9 9 8 9 9 9 8 7 6 6 6 6 6 7 6 6 6 6 6 5 5 4 4 4 3 3 4 4 4 5 5 5 4 4
8 7 7 7 8 8 11 11 10 9 10 10 9 9 9 9 7 6 5 5 5 5 5 5 5 5 4 4 4 3 3 2 2 2 2 2 3 4 4 4 4 4 3 3
8 7 7 7 7 9 11 11 11 10 9 10 9 9 9 9 8 6 4 4 4 4 4 4 4 3 3 2 2 2 1 1 1 1 1 2 3 4 4 4 3 3 3 2
8 7 6 7 7 8 11 12 11 10 9 10 9 9 8 8 8 5 3 3 3 3 3 2 2 2 1 1 0 0 -0 -0 0 1 1 2 3 4 3 3 2 2 2 1
7 6 6 7 7 9 12 12 11 10 10 10 9 8 7 6 4 3 2 2 2 2 1 1 1 0 -0 -0 -0 -1 -0 0 1 2 2 2 3 3 2 2 2 1 1 1
8 8 7 7 7 8 12 12 11 10 10 10 8 7 6 4 3 2 2 2 1 1 0 0 -0 -1 -1 -1 0 0 1 1 2 2 2 2 2 2 2 1 1 1 0 0
10 10 10 9 9 12 13 12 11 10 9 8 7 6 6 4 3 2 2 1 1 1 0 0 0 -0 -0 0 1 2 2 2 2 2 2 2 2 1 1 1 0 0 -0 -1
11 11 10 10 11 12 12 11 10 8 7 6 5 5 5 4 3 2 1 1 1 1 1 0 1 1 0 1 2 3 2 2 2 2 2 1 1 1 0 -0 -0 -1 -1 -2
11 10 10 10 11 12 10 9 8 7 6 5 5 5 5 4 3 2 1 1 1 1 1 1 2 2 2 2 2 2 2 2 2 2 1 1 0 0 -0 -1 -1 -2 -2 -3
10 10 10 10 11 10 9 9 8 7 6 5 4 4 3 3 3 2 2 1 1 1 2 3 3 3 2 2 2 2 2 2 2 1 0 0 -0 -1 -1 -1 -2 -3 -3 -4
Wind_Speed
6 5 8 11 14 13 9 9 9 8 9 7 11 16 14 14 15 16 15 14 14 14 12 11 11 11 11 10 10 11 12 14 11 10 11 10 9 7 6 7 9 12 14 15
5 9 10 8 7 9 9 9 10 10 8 9 13 21 18 20 21 19 18 16 15 15 14 14 12 12 12 12 11 10 11 13 13 11 10 8 6 5 5 5 8 11 13 14
8 2 7 10 6 6 8 9 9 10 12 10 12 14 13 14 19 18 17 17 15 16 15 14 13 13 12 13 12 11 10 11 13 13 9 8 7 5 4 6 6 7 11 12
8 4 2 5 7 8 7 4 6 7 6 6 6 8 8 8 8 10 12 13 13 13 13 12 13 13 13 13 12 12 11 11 12 15 14 15 11 8 6 6 6 8 10 11
8 6 6 7 7 6 2 5 4 6 7 7 6 8 11 9 11 10 11 12 11 11 11 11 11 11 11 10 11 12 12 11 12 15 16 16 11 7 9 10 12 10 9 9
4 4 5 6 6 5 3 1 6 7 4 7 8 10 10 4 5 3 2 4 6 7 7 6 6 6 7 7 7 9 12 11 12 14 15 14 14 15 16 15 13 11 9 8
6 7 5 3 4 4 4 3 3 4 5 9 9 9 10 7 5 4 4 4 5 5 4 3 4 4 5 7 7 7 10 10 12 14 14 13 14 17 18 17 15 15 12 10
7 6 12 8 7 5 8 5 4 4 5 4 4 8 8 8 7 6 6 5 6 7 5 5 5 4 5 6 6 7 9 9 12 13 13 12 14 13 12 13 14 14 12 10
7 3 9 9 8 5 7 7 5 5 6 6 7 8 9 11 10 8 8 7 7 7 6 5 5 5 6 7 7 8 9 9 11 13 12 13 15 14 14 13 13 12 12 13
2 3 6 6 6 7 6 4 4 3 4 7 9 8 6 5 7 6 3 4 6 5 4 3 4 5 7 7 6 7 9 10 11 12 12 13 13 14 15 14 14 14 15 14
2 3 4 6 8 10 8 5 5 4 5 4 7 6 4 8 8 8 7 7 5 5 4 3 3 5 6 6 4 6 8 11 12 13 14 14 13 15 15 14 14 14 14 15
6 3 4 7 8 10 10 9 8 5 6 6 6 9 6 7 7 9 11 10 7 7 5 4 4 5 5 5 3 4 8 11 13 15 15 13 14 15 15 14 14 14 15 14
8 4 3 4 5 7 6 10 12 9 6 7 9 12 6 9 13 14 14 14 11 8 8 6 4 3 3 3 2 4 9 13 15 15 15 14 14 15 15 15 15 14 14 14
7 4 5 3 1 1 5 8 11 10 10 11 16 25 26 25 25 20 16 16 13 11 8 5 2 1 2 2 4 8 12 14 15 15 15 14 14 15 15 15 14 14 14 13
3 3 6 10 13 12 13 15 14 16 16 17 21 28 31 27 23 18 15 13 11 9 8 3 1 4 5 7 9 12 13 13 14 15 14 14 15 15 15 15 14 14 13 13
4 4 5 8 13 15 17 17 16 16 16 17 22 24 19 17 15 12 11 9 6 5 5 1 5 7 9 10 12 13 12 12 13 14 14 15 16 16 16 15 15 14 13 12
5 3 3 4 7 9 9 7 6 6 8 11 12 13 16 15 12 10 10 7 4 3 1 5 7 8 10 11 12 12 12 12 13 14 16 16 17 17 16 16 15 14 12 10
6 4 2 5 7 4 1 5 5 7 10 10 12 14 13 10 5 7 10 6 3 1 3 7 9 10 10 11 12 12 13 13 14 15 15 16 16 17 15 15 14 12 10 8
6 4 2 3 5 8 5 2 2 4 6 4 6 10 11 8 1 7 12 9 6 6 7 9 10 11 12 12 13 14 14 14 15 15 15 15 15 16 15 14 12 9 8 7
7 5 3 3 4 4 2 2 1 1 4 0 4 8 9 8 4 6 10 10 10 11 11 12 12 13 13 12 13 15 15 15 15 15 15 14 14 15 14 12 10 8 7 6
5 6 7 6 5 7 6 2 2 3 4 5 5 5 5 3 3 4 8 10 11 11 12 12 13 12 12 13 14 15 15 15 15 15 15 14 13 13 12 10 8 7 6 5
8 6 6 5 6 7 3 2 3 5 5 5 4 3 3 6 6 7 8 9 10 11 12 12 13 13 12 12 14 16 15 14 14 14 14 13 12 10 10 9 7 6 5 3
7 7 5 7 7 6 3 3 3 4 5 5 3 2 5 7 7 8 8 9 9 10 11 11 12 13 12 11 12 16 14 13 14 15 14 12 11 9 8 7 6 5 4 3
4 3 2 4 7 7 3 4 5 5 4 4 3 2 6 8 9 9 8 8 9 9 9 10 12 14 13 11 11 13 13 13 14 15 12 10 9 8 7 6 5 4 4 4
3 2 3 6 8 5 4 5 4 4 5 5 5 6 8 10 10 10 9 8 8 9 9 10 12 14 14 12 12 11 11 13 14 13 10 8 7 7 6 5 4 4 4 4
6 6 5 4 2 2 2 3 4 4 5 6 7 8 8 9 11 10 9 8 9 10 10 12 12 14 13 12 12 10 9 11 12 10 8 6 5 5 4 4 2 2 1 1
Wind_Direction
177 195 203 203 213 251 305 312 302 302 332 321 276 273 268 263 259 254 248 245 246 249 251 245 240 241 242 233 217 202 183 178 178 177 179 184 186 168 156 152 146 143 139 136
160 234 232 239 228 240 268 279 284 294 308 306 287 279 270 256 249 244 243 242 241 243 244 244 240 235 235 237 229 215 196 182 181 179 178 174 153 130 117 120 121 126 130 134
195 189 229 230 230 236 253 260 274 290 318 291 278 282 259 247 233 232 235 238 242 244 244 242 239 235 232 231 228 223 210 192 179 166 154 130 100 87 96 107 112 117 126 130
229 224 182 211 220 219 251 261 275 289 296 292 314 296 274 278 269 231 220 221 230 239 242 243 242 240 233 229 224 219 213 200 177 163 161 160 166 161 160 140 126 122 125 132
210 209 201 220 229 217 244 32 334 296 291 292 248 254 275 228 246 239 224 215 222 232 236 237 235 236 238 231 221 213 206 197 173 166 164 167 166 142 133 131 133 131 134 135
219 171 209 224 233 234 214 282 268 248 263 267 223 218 276 247 257 282 261 218 228 239 246 252 254 250 248 245 232 214 196 185 167 161 159 165 162 150 148 150 149 144 142 139
226 215 205 220 197 191 191 208 256 213 222 248 233 226 253 262 284 285 284 291 295 296 279 280 282 278 268 256 238 213 191 176 162 157 160 167 161 155 158 157 155 151 150 148
192 222 197 195 207 178 191 206 236 267 269 295 273 247 257 254 251 236 227 240 263 274 278 287 289 287 276 259 236 209 187 171 158 156 161 162 150 154 157 156 156 155 153 147
186 192 146 174 195 197 178 216 277 319 303 281 255 263 283 256 251 236 226 228 243 251 258 272 290 296 282 262 231 202 183 169 157 155 153 151 148 151 151 150 149 147 144 143
191 171 159 153 165 223 244 194 193 204 266 278 273 257 254 325 350 337 296 253 252 258 262 279 292 302 298 276 237 194 178 166 154 151 148 146 145 144 145 147 148 145 143 141
188 162 160 161 201 200 203 220 212 230 250 268 285 263 315 340 338 335 321 311 300 304 288 291 313 311 302 294 249 190 170 152 145 139 134 136 137 138 139 142 141 140 139 138
186 188 231 221 210 206 198 203 195 214 239 231 267 273 285 302 321 328 322 314 304 301 294 291 300 305 296 291 263 186 152 140 133 129 128 130 131 133 134 134 134 136 135 132
167 181 232 213 210 198 222 225 222 231 261 251 256 268 282 309 314 317 314 306 297 284 279 277 278 280 267 264 227 145 129 122 121 123 125 128 131 132 132 132 133 132 129 124
166 196 229 249 143 203 231 239 233 231 248 258 252 271 285 294 299 302 298 286 287 285 280 282 267 212 186 153 120 115 110 113 118 121 126 131 132 130 129 128 126 124 121 117
168 240 251 268 280 275 262 257 249 241 245 259 272 279 288 296 301 302 300 286 271 285 295 289 143 128 114 104 99 102 104 109 117 123 128 129 127 124 123 121 118 115 112 109
190 256 276 269 262 260 261 259 255 255 254 259 273 282 287 297 306 313 316 303 274 284 299 47 105 108 106 105 104 104 106 111 119 124 126 125 124 121 119 116 113 109 106 105
186 222 272 278 300 295 266 240 232 245 261 267 279 290 308 315 330 340 334 330 320 312 338 97 101 101 103 106 111 113 115 117 120 122 123 123 122 119 117 115 112 109 108 107
189 197 250 290 309 277 230 159 202 255 272 270 276 296 314 322 341 10 0 349 331 334 72 98 101 98 97 102 107 109 112 115 118 120 121 120 119 116 113 111 109 109 111 113
189 190 244 276 289 278 272 173 230 276 283 267 298 319 329 326 309 31 16 20 35 61 84 92 96 99 101 104 109 112 112 114 115 116 115 116 116 113 110 108 108 111 112 109
190 188 227 263 286 275 337 90 112 233 264 133 337 331 337 348 1 8 16 40 56 67 79 89 93 97 100 103 109 113 115 115 115 114 113 111 110 111 111 111 109 106 106 107
173 194 218 235 255 272 293 341 320 290 306 343 344 337 348 31 54 45 51 64 74 80 86 93 97 99 101 106 111 112 112 112 113 113 111 108 107 108 108 106 101 101 102 106
181 192 199 201 225 254 281 343 304 293 315 334 353 24 76 103 93 80 75 77 85 93 97 102 107 108 110 113 116 115 114 116 115 112 108 104 101 103 103 101 96 91 87 82
195 202 196 206 230 268 316 300 327 0 333 353 8 70 123 118 106 97 89 85 86 94 102 108 112 112 111 113 119 118 118 118 113 106 103 100 97 95 96 95 93 87 74 59
220 187 225 267 271 283 320 44 41 37 19 7 7 109 125 120 117 110 102 95 92 92 96 101 104 104 103 103 105 110 112 112 108 105 102 100 97 92 84 80 72 69 63 48
286 192 225 256 273 279 98 62 49 56 55 54 57 83 112 120 118 114 110 104 101 96 93 97 103 103 102 102 100 102 107 109 104 100 98 94 91 93 86 80 72 68 78 83
231 224 228 250 326 7 46 65 66 84 80 85 92 92 98 112 118 115 111 107 105 102 103 104 104 104 103 101 98 95 96 102 104 101 93 89 88 84 82 78 70 96 106 72
Height
1467 1470 1470 1468 1469 1467 1466 1468 1467 1461 1457 1460 1460 1456 1453 1450 1448 1446 1445 1445 1444 1444 1445 1446 1447 1449 1451 1454 1457 1459 1461 1464 1467 1470 1473 1476 1480 1483 1487 1490 1493 1496 1499 1502
1469 1469 1464 1463 1463 1466 1468 1471 1470 1466 1461 1462 1459 1452 1446 1441 1436 1435 1436 1436 1436 1437 1438 1439 1440 1442 1443 1445 1448 1451 1454 1457 1460 1463 1466 1470 1474 1478 1481 1484 1488 1491 1494 1497
1464 1464 1462 1463 1466 1469 1471 1473 1472 1471 1467 1464 1462 1447 1433 1422 1422 1425 1426 1428 1429 1429 1430 1431 1433 1435 1437 1438 1441 1444 1448 1451 1453 1457 1461 1464 1467 1471 1474 1478 1481 1485 1489 1493
1464 1462 1463 1465 1467 1469 1472 1468 1470 1471 1475 1471 1464 1461 1432 1423 1419 1417 1418 1419 1420 1422 1423 1424 1426 1428 1429 1432 1435 1438 1442 1445 1447 1450 1452 1455 1459 1462 1466 1470 1474 1479 1484 1488
1462 1461 1464 1467 1467 1468 1470 1470 1473 1474 1476 1477 1467 1469 1434 1421 1418 1413 1411 1412 1414 1416 1417 1418 1419 1421 1423 1425 1428 1431 1435 1438 1440 1442 1444 1449 1453 1456 1460 1465 1469 1474 1479 1484
1458 1461 1463 1465 1465 1467 1469 1473 1475 1474 1477 1479 1461 1459 1435 1419 1410 1407 1406 1408 1410 1411 1413 1413 1414 1416 1417 1419 1421 1423 1426 1430 1433 1435 1438 1443 1447 1449 1453 1457 1462 1468 1474 1478
1462 1462 1463 1464 1466 1469 1471 1478 1479 1476 1477 1469 1448 1443 1428 1411 1405 1405 1406 1407 1408 1409 1410 1410 1411 1411 1412 1413 1415 1416 1419 1422 1426 1429 1433 1438 1441 1443 1447 1451 1456 1462 1468 1473
1463 1460 1459 1462 1465 1467 1471 1474 1478 1474 1463 1448 1436 1433 1416 1403 1400 1400 1402 1404 1405 1406 1407 1407 1408 1408 1409 1409 1410 1411 1413 1416 1420 1424 1429 1434 1436 1439 1443 1447 1452 1458 1463 1468
1455 1457 1455 1458 1463 1465 1469 1473 1470 1473 1469 1467 1447 1426 1411 1400 1397 1397 1398 1400 1401 1402 1403 1404 1405 1405 1405 1405 1405 1406 1409 1412 1416 1420 1425 1429 1432 1435 1439 1443 1449 1454 1460 1465
1450 1456 1456 1458 1463 1466 1465 1466 1472 1478 1481 1467 1442 1427 1415 1401 1399 1397 1397 1397 1398 1399 1399 1400 1401 1401 1401 1400 1400 1401 1404 1407 1411 1416 1421 1424 1428 1432 1436 1441 1445 1451 1456 1462
1451 1458 1458 1460 1463 1463 1467 1468 1468 1469 1467 1468 1453 1428 1400 1401 1399 1399 1398 1397 1396 1396 1396 1396 1396 1396 1396 1396 1396 1397 1399 1403 1407 1412 1416 1420 1424 1429 1433 1438 1443 1448 1454 1460
1451 1456 1459 1456 1453 1454 1458 1461 1465 1473 1466 1459 1453 1428 1403 1401 1398 1398 1398 1396 1394 1393 1392 1392 1391 1390 1390 1391 1392 1393 1395 1399 1403 1407 1413 1417 1422 1426 1431 1436 1441 1447 1453 1459
1450 1457 1463 1455 1457 1454 1454 1454 1456 1460 1461 1456 1450 1426 1402 1399 1398 1398 1397 1394 1391 1389 1388 1387 1385 1384 1384 1385 1388 1390 1392 1395 1400 1405 1410 1415 1419 1424 1429 1435 1441 1447 1452 1458
1449 1453 1459 1452 1450 1450 1453 1452 1451 1456 1456 1447 1436 1417 1404 1401 1398 1395 1392 1389 1387 1385 1383 1382 1380 1379 1380 1382 1385 1388 1390 1393 1398 1403 1408 1413 1418 1423 1429 1434 1441 1447 1453 1458
1450 1453 1451 1448 1445 1445 1445 1444 1443 1446 1446 1442 1426 1417 1404 1399 1395 1390 1386 1382 1380 1380 1379 1378 1376 1376 1378 1381 1384 1387 1390 1393 1398 1403 1408 1413 1418 1423 1429 1435 1441 1448 1453 1458
1449 1451 1448 1446 1439 1437 1435 1431 1431 1431 1429 1427 1421 1411 1401 1396 1391 1386 1382 1378 1377 1377 1377 1376 1376 1377 1378 1381 1384 1387 1391 1395 1400 1404 1409 1413 1417 1423 1430 1436 1443 1448 1454 1459
1447 1449 1449 1443 1432 1432 1429 1421 1422 1422 1420 1419 1414 1406 1398 1393 1389 1386 1382 1378 1377 1377 1377 1376 1377 1378 1380 1383 1386 1390 1394 1398 1402 1406 1409 1414 1419 1425 1432 1438 1444 1450 1455 1459
1444 1447 1448 1444 1438 1433 1420 1413 1416 1417 1413 1411 1408 1402 1397 1393 1390 1387 1383 1379 1378 1377 1378 1378 1379 1380 1383 1385 1389 1392 1396 1400 1404 1407 1411 1416 1421 1428 1434 1441 1446 1451 1455 1458
1441 1445 1446 1445 1439 1427 1414 1412 1413 1414 1410 1406 1404 1400 1395 1390 1388 1387 1386 1382 1379 1379 1379 1380 1381 1383 1385 1388 1391 1395 1399 1403 1406 1410 1415 1420 1426 1431 1437 1442 1447 1451 1455 1457
1438 1443 1446 1443 1439 1431 1413 1409 1408 1412 1409 1403 1401 1398 1395 1391 1390 1393 1390 1386 1383 1382 1382 1383 1384 1386 1389 1392 1395 1398 1402 1406 1410 1415 1420 1425 1431 1435 1440 1444 1449 1452 1455 1457
1438 1441 1442 1441 1438 1425 1410 1407 1408 1412 1408 1402 1399 1398 1396 1395 1397 1397 1393 1390 1387 1386 1386 1387 1388 1390 1393 1396 1399 1402 1406 1410 1415 1420 1425 1430 1435 1439 1443 1447 1450 1453 1454 1456
1429 1432 1433 1433 1433 1426 1406 1406 1408 1406 1401 1400 1398 1397 1396 1396 1397 1396 1395 1394 1393 1392 1392 1392 1393 1395 1399 1401 1404 1407 1410 1415 1420 1425 1429 1434 1438 1443 1446 1449 1451 1452 1454 1454
1418 1419 1419 1421 1419 1407 1404 1404 1403 1401 1400 1398 1397 1396 1396 1396 1397 1397 1397 1398 1398 1398 1398 1399 1400 1402 1405 1408 1411 1413 1417 1421 1426 1430 1434 1438 1442 1445 1448 1450 1451 1452 1453 1453
1411 1410 1413 1413 1407 1404 1403 1402 1401 1399 1398 1397 1396 1395 1395 1396 1397 1399 1400 1401 1402 1403 1404 1406 1407 1408 1411 1415 1418 1421 1424 1428 1432 1435 1438 1442 1444 1447 1449 1450 1451 1452 1451 1451
1411 1410 1411 1410 1405 1402 1401 1401 1400 1398 1397 1396 1395 1395 1396 1396 1398 1400 1402 1403 1405 1407 1409 1410 1411 1413 1416 1420 1424 1427 1430 1433 1436 1439 1441 1444 1447 1448 1450 1450 1451 1450 1450 1449
1408 1408 1409 1407 1403 1403 1402 1400 1399 1398 1397 1396 1396 1396 1397 1398 1399 1401 1403 1406 1408 1409 1412 1414 1416 1419 1422 1425 1428 1432 1435 1438 1440 1442 1444 1446 1448 1449 1450 1450 1450 1449 1448 1447